EW3670 Weather Reports


Display with metric or nautical units.
time (UTC)temp
F
wind
direction
speed
MPH
gust
MPH
rain 1hr
in
rain 24hr
in
rain mn
in
humidity
%
barometer
mb
20260901040109 68 101 1.0 2.0 0.00 0.00 0.00 79 1015.8
20260901034607 69 37 0.0 3.0 0.00 0.00 0.00 79 1015.8
20260901033108 69 0 1.0 3.0 0.00 0.00 0.00 79 1015.8
20260901031555 69 50 0.0 2.0 0.00 0.00 0.00 79 1016.2
20260901030103 69 0 0.0 2.0 0.00 0.00 0.00 79 1016.2
20260901024607 70 0 0.0 2.0 0.00 0.00 0.00 79 1016.2
20260901023102 69 0 0.0 0.0 0.00 0.00 0.00 80 1016.2
20260901021609 70 0 0.0 0.0 0.00 0.00 0.00 79 1016.2
20260901020111 70 120 0.0 1.0 0.00 0.00 0.00 79 1016.2
20260901014605 70 0 0.0 2.0 0.00 0.00 0.00 79 1016.3
20260901013057 70 145 0.0 1.0 0.00 0.00 0.00 79 1016.1
20260901011603 70 0 0.0 2.0 0.00 0.00 0.00 79 1016.2
20260901004608 71 0 0.0 0.0 0.00 0.00 0.00 77 1016.4
20260901003103 71 0 0.0 0.0 0.00 0.00 0.00 76 1016.4
20260901001600 71 0 0.0 0.0 0.00 0.00 0.00 75 1016.2
20260901000057 71 0 0.0 2.0 0.00 0.00 0.00 75 1016.3
20260831234605 72 0 0.0 2.0 0.00 0.00 0.00 74 1016.4
20260831233102 72 0 0.0 0.0 0.00 0.00 0.00 77 1016.7
20260831231557 71 0 0.0 2.0 0.00 0.00 0.00 77 1016.7
20260831230108 71 205 1.0 2.0 0.00 0.00 0.00 76 1016.8
20260831224601 72 200 1.0 2.0 0.00 0.00 0.00 74 1016.8
20260831223058 74 115 1.0 4.0 0.00 0.00 0.00 65 1017.0
20260831221608 74 0 0.0 2.0 0.00 0.00 0.00 65 1016.8
20260831220129 74 155 0.0 2.0 0.00 0.00 0.00 64 1016.8
20260831214556 75 0 0.0 2.0 0.00 0.00 0.00 65 1016.9
20260831213106 75 0 0.0 2.0 0.00 0.00 0.00 63 1016.8
20260831211604 74 0 0.0 3.0 0.00 0.00 0.00 64 1016.8
20260831210100 75 0 1.0 4.0 0.00 0.00 0.00 63 1016.8
20260831204559 75 117 0.0 2.0 0.00 0.00 0.00 62 1017.0
20260831203134 75 157 1.0 7.0 0.00 0.00 0.00 62 1017.3
20260831201606 74 34 1.0 6.0 0.00 0.00 0.00 61 1017.2
20260831200106 77 0 0.0 3.0 0.00 0.00 0.00 59 1017.2
20260831194611 75 280 1.0 3.0 0.00 0.00 0.00 62 1017.3
20260831193102 76 256 0.0 4.0 0.00 0.00 0.00 62 1017.4
20260831191557 74 117 2.0 5.0 0.00 0.00 0.00 63 1017.5
20260831190132 74 83 1.0 3.0 0.00 0.00 0.00 63 1017.9
20260831184609 75 118 1.0 4.0 0.00 0.00 0.00 65 1018.1
20260831183059 73 124 1.0 3.0 0.00 0.00 0.00 67 1018.3
20260831181606 74 0 1.0 4.0 0.00 0.00 0.00 67 1018.4
20260831174602 73 260 1.0 3.0 0.00 0.00 0.00 70 1018.8
20260831173058 71 332 1.0 2.0 0.00 0.00 0.00 75 1018.8
20260831171607 71 143 0.0 4.0 0.00 0.00 0.00 77 1018.9
20260831170110 70 0 1.0 4.0 0.00 0.00 0.00 79 1019.2
20260831164604 69 47 1.0 4.0 0.00 0.00 0.00 81 1019.2
20260831163105 68 60 1.0 6.0 0.00 0.00 0.00 83 1019.3
20260831161607 67 34 1.0 3.0 0.00 0.00 0.00 84 1019.5
20260831160135 66 46 1.0 4.0 0.00 0.00 0.00 85 1019.5
20260831154631 65 64 0.0 4.0 0.00 0.00 0.00 87 1019.5
20260831153132 65 132 1.0 3.0 0.00 0.00 0.00 87 1019.5
20260831151602 64 70 1.0 3.0 0.00 0.00 0.00 88 1019.4
20260831150107 63 78 1.0 2.0 0.00 0.00 0.00 89 1019.6
20260831144607 63 0 0.0 3.0 0.00 0.00 0.00 90 1019.7
20260831143102 63 0 0.0 2.0 0.00 0.00 0.00 90 1019.4
20260831141601 62 78 2.0 4.0 0.00 0.00 0.00 90 1019.6
20260831140108 62 44 1.0 5.0 0.00 0.00 0.00 91 1019.6
20260831134609 61 110 0.0 3.0 0.00 0.00 0.00 92 1019.5
20260831133106 61 38 1.0 3.0 0.00 0.00 0.00 92 1019.4
20260831131604 60 0 1.0 2.0 0.00 0.00 0.00 93 1019.4
20260831130137 60 38 1.0 2.0 0.00 0.00 0.00 93 1019.5
20260831124604 59 25 1.0 3.0 0.00 0.00 0.00 94 1019.9
20260831123106 59 105 0.0 2.0 0.00 0.00 0.00 94 1019.8
20260831121608 59 51 0.0 2.0 0.00 0.00 0.00 94 1019.8
20260831120146 58 32 1.0 3.0 0.00 0.00 0.00 94 1019.8
20260831114603 58 61 1.0 4.0 0.00 0.00 0.00 94 1019.7
20260831113102 57 74 1.0 3.0 0.00 0.00 0.00 94 1019.6
20260831111559 57 33 1.0 3.0 0.00 0.00 0.00 93 1019.4
20260831110107 57 59 0.0 4.0 0.00 0.00 0.00 93 1019.6
20260831104600 56 132 0.0 6.0 0.00 0.00 0.00 92 1019.2
20260831103104 57 57 2.0 7.0 0.00 0.00 0.00 91 1018.9
20260831101621 58 98 1.0 3.0 0.00 0.00 0.00 89 1018.9
20260831100108 58 0 1.0 2.0 0.00 0.00 0.00 89 1019.1
20260831094609 58 36 0.0 2.0 0.00 0.00 0.00 90 1018.9
20260831093101 58 34 0.0 2.0 0.00 0.00 0.00 90 1018.8
20260831091606 58 33 1.0 2.0 0.00 0.00 0.00 89 1018.6
20260831090123 59 43 0.0 3.0 0.00 0.00 0.00 89 1018.6
20260831084558 59 0 0.0 2.0 0.00 0.00 0.00 89 1018.7
20260831083105 59 0 1.0 2.0 0.00 0.00 0.00 89 1018.8
20260831081605 60 0 1.0 3.0 0.00 0.00 0.00 89 1018.9
20260831080100 60 42 2.0 3.0 0.00 0.00 0.00 89 1018.8
20260831074600 60 74 0.0 2.0 0.00 0.00 0.00 90 1018.6
20260831073114 60 0 0.0 2.0 0.00 0.00 0.00 90 1018.6
20260831071608 61 27 0.0 2.0 0.00 0.00 0.00 90 1018.5
20260831070134 61 44 0.0 2.0 0.00 0.00 0.00 91 1018.7
20260831064604 61 44 0.0 2.0 0.00 0.00 0.00 92 1018.5
20260831063107 61 0 0.0 1.0 0.00 0.00 0.00 91 1018.5
20260831061610 61 0 0.0 0.0 0.00 0.00 0.00 91 1018.5
20260831060111 62 0 0.0 2.0 0.00 0.00 0.00 91 1018.4
20260831054606 62 0 0.0 2.0 0.00 0.00 0.00 91 1018.5
20260831053105 63 44 0.0 1.0 0.00 0.00 0.00 91 1018.4
20260831051618 63 0 0.0 0.0 0.00 0.00 0.00 90 1018.3
20260831050106 63 0 1.0 2.0 0.00 0.00 0.00 90 1018.3
20260831044604 63 0 0.0 2.0 0.00 0.00 0.00 90 1018.3
20260831043108 63 0 0.0 0.0 0.00 0.00 0.00 90 1018.4
20260831041607 64 0 0.0 0.0 0.00 0.00 0.00 89 1018.3